IRS 1B

导读

IRS 1B是印度于1991年8月29日发射的第二颗IRS系列地球资源遥感卫星,运行于800-900公里高度的太阳同步轨道,整星质量约800-1250公斤,搭载光学遥感载荷,可获取分辨率36-73米的对地观测影像,服务于陆地资源调查、环境监测、测绘等应用,推动了印度遥感应用发展。

Basic Information
目录编号:
21688
目录名称:
IRS 1B
国际标识:
1991-061A
轨道中心:
EARTH
卫星名称:
IRS 1B
卫星全名:
--
卫星状态:
在轨 (已飞行12738 天)
发射日期:
1991-08-29 UTC
国别 :
印度 (IN)
星等 :
--
Orbit Information
数据来源 国际轨道数据 AOE轨道数据
星历时间 2026-07-14T05:19:53+0800
7小时前
查看轨道信息
2026-07-13T18:00:00+0800
19小时前
查看轨道信息
半长轴 7279.295km 7279.297km
偏心率 0.002322 0.0023169
轨道倾角 99.411° 99.412°
近地点辐角 291.820° 293.062°
升交点赤经 203.501° 203.020°
平近点角 131.704° 275.766°
近地点 884.255km 884.294km
远地点 918.061km 918.026km
周期 103.013分钟 103.013分钟
每日圈数 13.978767 13.978761
Detailed Information
使用方式:
暂无
2D Orbit Map
3D Orbit Map
Orbit Altitude Analysis Chart
Orbit Inclination Analysis Chart
Orbit Comprehensive Analysis Chart
View Comprehensive Chart